DFINE EDDH-EKLS

Flight info

Callsign DFINE
Flight time 2h 5m
Altitude 7500
Route HAM DCT KHD DCT ODN
Aircraft C208/L-SDFGR/C

Departure

Time 2026-04-24 13:50
Airport Hamburg Helmut Schmidt Airport (EDDH)

Arrival

Time 2026-04-24 15:55
Airport Læsø Airport (EKLS)
Time Latitude Longitude Altitude Speed Heading
2026-04-24 13:28 53.62631 9.98638 45 ft 0 kts 243°
2026-04-24 13:45 53.62632 9.98631 45 ft 2 kts 302°
2026-04-24 13:45 53.62650 9.98649 45 ft 0 kts 54°
2026-04-24 13:46 53.62651 9.98651 45 ft 2 kts 52°
2026-04-24 13:46 53.62701 9.98651 45 ft 12 kts 335°
2026-04-24 13:46 53.62783 9.98739 45 ft 21 kts 52°
2026-04-24 13:47 53.62891 9.98961 45 ft 28 kts 52°
2026-04-24 13:47 53.63003 9.99185 45 ft 19 kts 51°
2026-04-24 13:47 53.63090 9.99297 45 ft 13 kts 18°
2026-04-24 13:47 53.63150 9.99320 45 ft 0 kts 14°
2026-04-24 13:49 53.63192 9.99336 45 ft 12 kts 12°
2026-04-24 13:49 53.63305 9.99351 45 ft 21 kts 348°
2026-04-24 13:49 53.63526 9.99176 46 ft 53 kts 333°
2026-04-24 13:50 53.63935 9.98892 134 ft 68 kts 334°
2026-04-24 13:50 53.64369 9.98552 279 ft 74 kts 330°
2026-04-24 13:50 53.64897 9.98172 424 ft 90 kts 328°
2026-04-24 13:50 53.65468 9.97880 762 ft 89 kts 348°
2026-04-24 13:51 53.66126 9.98082 981 ft 107 kts 11°
2026-04-24 13:51 53.66820 9.98741 1142 ft 127 kts 23°
2026-04-24 13:51 53.67584 9.99625 1225 ft 143 kts 28°
2026-04-24 13:51 53.68336 10.00665 1214 ft 136 kts 36°
2026-04-24 13:52 53.68784 10.01379 1216 ft 129 kts 31°
2026-04-24 13:52 53.69673 10.02586 1287 ft 121 kts 32°
2026-04-24 13:52 53.70317 10.03481 1334 ft 119 kts 28°
2026-04-24 13:52 53.70999 10.04107 1471 ft 105 kts 12°
2026-04-24 13:53 53.71646 10.04582 1603 ft 99 kts 11°
2026-04-24 13:53 53.72267 10.04963 1732 ft 91 kts
2026-04-24 13:53 53.72865 10.05358 1889 ft 99 kts 13°
2026-04-24 13:53 53.73551 10.05637 2003 ft 108 kts 347°
2026-04-24 13:54 53.74348 10.05357 2019 ft 125 kts 339°
2026-04-24 13:54 53.75227 10.04996 2008 ft 136 kts 340°
2026-04-24 13:54 53.76160 10.04604 2004 ft 141 kts 340°
2026-04-24 13:54 53.77088 10.04035 2009 ft 140 kts 327°
2026-04-24 13:55 53.77669 10.03527 1993 ft 142 kts 329°
2026-04-24 13:55 53.78784 10.02533 1994 ft 132 kts 327°
2026-04-24 13:55 53.79316 10.02059 1988 ft 129 kts 328°
2026-04-24 13:55 53.80118 10.01348 1986 ft 130 kts 329°
2026-04-24 13:56 53.80957 10.00900 1979 ft 123 kts 341°
2026-04-24 13:56 53.81762 10.00609 1973 ft 116 kts 341°
2026-04-24 13:56 53.82536 10.00347 1982 ft 111 kts 341°
2026-04-24 13:56 53.83290 10.00104 1979 ft 110 kts 340°
2026-04-24 13:57 53.84044 9.99899 1973 ft 109 kts 349°
2026-04-24 13:57 53.84801 9.99918 1977 ft 107 kts 352°
2026-04-24 13:57 53.85551 9.99930 1975 ft 109 kts 351°
2026-04-24 13:57 53.86300 9.99930 1975 ft 109 kts 352°
2026-04-24 13:58 53.87072 9.99944 1984 ft 110 kts 351°
2026-04-24 13:58 53.87843 9.99940 1952 ft 113 kts 351°
2026-04-24 13:58 53.88614 10.00442 1861 ft 130 kts 31°
2026-04-24 13:58 53.89314 10.01430 1796 ft 133 kts 31°
2026-04-24 13:59 53.90042 10.02401 1730 ft 132 kts 30°
2026-04-24 13:59 53.90768 10.03388 1661 ft 134 kts 31°
2026-04-24 13:59 53.91488 10.04372 1581 ft 136 kts 31°
2026-04-24 13:59 53.92229 10.05380 1506 ft 135 kts 30°
2026-04-24 14:00 53.92954 10.06359 1472 ft 132 kts 30°
2026-04-24 14:00 53.93666 10.07312 1461 ft 128 kts 31°
2026-04-24 14:00 53.94359 10.08225 1454 ft 127 kts 31°
2026-04-24 14:00 53.95055 10.09145 1476 ft 127 kts 30°
2026-04-24 14:01 53.95778 10.10100 1620 ft 134 kts 30°
2026-04-24 14:01 53.96519 10.11103 1764 ft 140 kts 30°
2026-04-24 14:01 53.97309 10.12133 1920 ft 145 kts 30°
2026-04-24 14:01 53.98112 10.13169 2050 ft 147 kts 31°
2026-04-24 14:02 53.98929 10.14239 2185 ft 147 kts 31°
2026-04-24 14:02 53.99735 10.15278 2317 ft 145 kts 30°
2026-04-24 14:02 54.00535 10.16323 2446 ft 143 kts 32°
2026-04-24 14:02 54.01328 10.17365 2583 ft 144 kts 30°
2026-04-24 14:03 54.02135 10.18303 2700 ft 138 kts 21°
2026-04-24 14:03 54.03011 10.18914 2827 ft 133 kts 15°
2026-04-24 14:03 54.03869 10.19453 2947 ft 133 kts 15°
2026-04-24 14:03 54.04742 10.19998 3083 ft 134 kts 13°
2026-04-24 14:04 54.05629 10.20540 3211 ft 134 kts 14°
2026-04-24 14:04 54.06493 10.21047 3341 ft 132 kts 10°
2026-04-24 14:04 54.07389 10.21312 3463 ft 130 kts
2026-04-24 14:04 54.08285 10.21538 3585 ft 129 kts
2026-04-24 14:05 54.09172 10.21767 3712 ft 131 kts
2026-04-24 14:05 54.10075 10.22004 3843 ft 130 kts
2026-04-24 14:05 54.10967 10.22233 3968 ft 129 kts
2026-04-24 14:05 54.11843 10.22459 4093 ft 128 kts
2026-04-24 14:06 54.12735 10.22582 4212 ft 128 kts 359°
2026-04-24 14:06 54.13618 10.22668 4351 ft 128 kts 359°
2026-04-24 14:06 54.14519 10.22745 4475 ft 128 kts 360°
2026-04-24 14:06 54.15399 10.22818 4600 ft 128 kts 359°
2026-04-24 14:07 54.16289 10.22890 4738 ft 129 kts
2026-04-24 14:07 54.17180 10.22966 4861 ft 127 kts 359°
2026-04-24 14:07 54.18061 10.23051 4990 ft 126 kts 360°
2026-04-24 14:07 54.18928 10.23131 5109 ft 126 kts 359°
2026-04-24 14:08 54.19805 10.23223 5234 ft 125 kts 360°
2026-04-24 14:08 54.20658 10.23314 5355 ft 123 kts 359°
2026-04-24 14:08 54.21504 10.23415 5438 ft 122 kts 359°
2026-04-24 14:08 54.22365 10.23519 5441 ft 126 kts 360°
2026-04-24 14:09 54.23251 10.23620 5445 ft 129 kts 360°
2026-04-24 14:09 54.24165 10.23714 5445 ft 132 kts 360°
2026-04-24 14:09 54.25090 10.23805 5453 ft 132 kts 359°
2026-04-24 14:09 54.26016 10.23895 5449 ft 134 kts 360°
2026-04-24 14:10 54.26947 10.23984 5455 ft 136 kts 359°
2026-04-24 14:10 54.27897 10.24082 5452 ft 136 kts 360°
2026-04-24 14:10 54.28834 10.24185 5453 ft 136 kts 359°
2026-04-24 14:10 54.29787 10.24286 5453 ft 137 kts 360°
2026-04-24 14:11 54.30730 10.24387 5450 ft 137 kts 359°
2026-04-24 14:11 54.31685 10.24479 5455 ft 136 kts 360°
2026-04-24 14:11 54.33578 10.24523 5454 ft 136 kts 354°
2026-04-24 14:12 54.34506 10.24457 5445 ft 128 kts 355°
2026-04-24 14:12 54.35357 10.24402 5434 ft 117 kts 355°
2026-04-24 14:12 54.36140 10.24360 5431 ft 111 kts 355°
2026-04-24 14:12 54.36879 10.24135 5434 ft 105 kts 344°
2026-04-24 14:13 54.37583 10.23833 5433 ft 103 kts 345°
2026-04-24 14:13 54.38275 10.23545 5434 ft 103 kts 344°
2026-04-24 14:13 54.38946 10.23142 5435 ft 101 kts 340°
2026-04-24 14:13 54.39614 10.22788 5443 ft 102 kts 342°
2026-04-24 14:14 54.40302 10.22436 5445 ft 104 kts 343°
2026-04-24 14:14 54.41007 10.22099 5448 ft 107 kts 343°
2026-04-24 14:14 54.42401 10.21450 5443 ft 102 kts 343°
2026-04-24 14:15 54.43084 10.21136 5441 ft 101 kts 343°
2026-04-24 14:15 54.43755 10.20830 5439 ft 100 kts 343°
2026-04-24 14:15 54.44429 10.20524 5436 ft 100 kts 343°
2026-04-24 14:15 54.45107 10.20214 5437 ft 100 kts 343°
2026-04-24 14:16 54.45786 10.19904 5441 ft 101 kts 343°
2026-04-24 14:16 54.46460 10.19596 5439 ft 101 kts 343°
2026-04-24 14:16 54.47153 10.19278 5452 ft 106 kts 343°
2026-04-24 14:17 54.48629 10.18610 5454 ft 112 kts 343°
2026-04-24 14:17 54.49392 10.18262 5457 ft 113 kts 343°
2026-04-24 14:17 54.50930 10.17562 5453 ft 115 kts 344°
2026-04-24 14:18 54.51697 10.17213 5451 ft 115 kts 343°
2026-04-24 14:18 54.52474 10.16857 5454 ft 115 kts 343°
2026-04-24 14:18 54.53242 10.16504 5446 ft 115 kts 343°
2026-04-24 14:18 54.54022 10.16149 5445 ft 115 kts 343°
2026-04-24 14:19 54.54536 10.15919 5448 ft 115 kts 343°
2026-04-24 14:19 54.55562 10.15452 5447 ft 115 kts 343°
2026-04-24 14:19 54.56339 10.15095 5443 ft 115 kts 343°
2026-04-24 14:19 54.57103 10.14744 5444 ft 114 kts 343°
2026-04-24 14:20 54.57873 10.14390 5443 ft 115 kts 343°
2026-04-24 14:20 54.58646 10.14031 5438 ft 115 kts 343°
2026-04-24 14:20 54.59424 10.13676 5437 ft 115 kts 343°
2026-04-24 14:20 54.60188 10.13328 5442 ft 115 kts 343°
2026-04-24 14:21 54.60960 10.12974 5438 ft 115 kts 343°
2026-04-24 14:21 54.61731 10.12622 5440 ft 114 kts 343°
2026-04-24 14:21 54.62502 10.12269 5436 ft 114 kts 343°
2026-04-24 14:21 54.63264 10.11919 5540 ft 113 kts 343°
2026-04-24 14:22 54.64028 10.11568 5680 ft 114 kts 343°
2026-04-24 14:22 54.64789 10.11219 5806 ft 114 kts 343°
2026-04-24 14:22 54.66321 10.10516 6063 ft 114 kts 343°
2026-04-24 14:23 54.67092 10.10161 6193 ft 114 kts 343°
2026-04-24 14:23 54.67848 10.09813 6319 ft 113 kts 343°
2026-04-24 14:23 54.68629 10.09600 6443 ft 115 kts 358°
2026-04-24 14:23 54.69425 10.09808 6566 ft 116 kts
2026-04-24 14:24 54.70228 10.10036 6680 ft 116 kts
2026-04-24 14:24 54.71024 10.10268 6800 ft 116 kts
2026-04-24 14:24 54.71819 10.10505 6918 ft 116 kts
2026-04-24 14:24 54.72610 10.10742 7038 ft 116 kts
2026-04-24 14:25 54.73136 10.10903 7120 ft 116 kts
2026-04-24 14:25 54.74197 10.11228 7282 ft 116 kts
2026-04-24 14:25 54.74995 10.11473 7400 ft 116 kts
2026-04-24 14:25 54.75818 10.11719 7415 ft 122 kts
2026-04-24 14:26 54.76648 10.11961 7415 ft 121 kts
2026-04-24 14:26 54.77480 10.12204 7415 ft 121 kts
2026-04-24 14:26 54.78305 10.12445 7413 ft 121 kts
2026-04-24 14:26 54.79132 10.12689 7414 ft 121 kts
2026-04-24 14:27 54.79970 10.12936 7413 ft 121 kts
2026-04-24 14:27 54.80794 10.13256 7413 ft 124 kts 11°
2026-04-24 14:27 54.81604 10.13772 7413 ft 125 kts 11°
2026-04-24 14:27 54.82413 10.14314 7413 ft 127 kts 17°
2026-04-24 14:28 54.83184 10.15103 7413 ft 129 kts 21°
2026-04-24 14:28 54.83944 10.15914 7444 ft 128 kts 21°
2026-04-24 14:28 54.84686 10.16714 7490 ft 126 kts 21°
2026-04-24 14:28 54.85436 10.17521 7491 ft 128 kts 21°
2026-04-24 14:29 54.86198 10.18339 7493 ft 129 kts 21°
2026-04-24 14:29 54.86967 10.19167 7497 ft 129 kts 21°
2026-04-24 14:29 54.87728 10.19984 7496 ft 130 kts 21°
2026-04-24 14:29 54.88491 10.20805 7496 ft 130 kts 21°
2026-04-24 14:30 54.89005 10.21357 7498 ft 130 kts 21°
2026-04-24 14:30 54.90043 10.22464 7499 ft 131 kts 21°
2026-04-24 14:30 54.90824 10.23293 7499 ft 131 kts 21°
2026-04-24 14:30 54.91595 10.24115 7501 ft 132 kts 21°
2026-04-24 14:31 54.92389 10.24957 7500 ft 135 kts 22°
2026-04-24 14:31 54.93191 10.25807 7503 ft 136 kts 21°
2026-04-24 14:31 54.94011 10.26681 7506 ft 138 kts 22°
2026-04-24 14:31 54.94838 10.27555 7496 ft 138 kts 21°
2026-04-24 14:32 54.95650 10.28419 7499 ft 137 kts 21°
2026-04-24 14:32 54.96466 10.29289 7498 ft 137 kts 21°
2026-04-24 14:32 54.97273 10.30146 7494 ft 137 kts 21°
2026-04-24 14:32 54.98088 10.31017 7497 ft 137 kts 22°
2026-04-24 14:33 54.98901 10.31881 7491 ft 135 kts 21°
2026-04-24 14:33 54.99698 10.32734 7492 ft 135 kts 21°
2026-04-24 14:33 55.00488 10.33589 7489 ft 135 kts 22°
2026-04-24 14:33 55.01291 10.34459 7490 ft 135 kts 22°
2026-04-24 14:34 55.02081 10.35311 7490 ft 134 kts 21°
2026-04-24 14:34 55.02883 10.36179 7487 ft 134 kts 22°
2026-04-24 14:34 55.03670 10.37030 7485 ft 134 kts 22°
2026-04-24 14:34 55.04460 10.37890 7483 ft 134 kts 22°
2026-04-24 14:35 55.05253 10.38751 7485 ft 134 kts 22°
2026-04-24 14:35 55.06052 10.39610 7489 ft 136 kts 21°
2026-04-24 14:35 55.06861 10.40475 7485 ft 136 kts 21°
2026-04-24 14:35 55.07665 10.41334 7488 ft 137 kts 22°
2026-04-24 14:36 55.08469 10.42192 7486 ft 136 kts 21°
2026-04-24 14:36 55.09280 10.43063 7487 ft 137 kts 21°
2026-04-24 14:36 55.10104 10.43949 7491 ft 139 kts 21°
2026-04-24 14:36 55.10925 10.44826 7486 ft 140 kts 21°
2026-04-24 14:37 55.11742 10.45701 7490 ft 138 kts 22°
2026-04-24 14:37 55.12565 10.46576 7484 ft 137 kts 21°
2026-04-24 14:37 55.13382 10.47448 7482 ft 137 kts 22°
2026-04-24 14:37 55.14196 10.48317 7485 ft 138 kts 21°
2026-04-24 14:38 55.15021 10.49196 7486 ft 139 kts 21°
2026-04-24 14:38 55.15837 10.50069 7484 ft 139 kts 21°
2026-04-24 14:38 55.16664 10.50951 7481 ft 140 kts 22°
2026-04-24 14:38 55.17499 10.51844 7481 ft 139 kts 21°
2026-04-24 14:39 55.18319 10.52727 7479 ft 140 kts 22°
2026-04-24 14:39 55.19152 10.53616 7482 ft 139 kts 21°
2026-04-24 14:39 55.19979 10.54497 7481 ft 139 kts 21°
2026-04-24 14:39 55.20796 10.55374 7483 ft 138 kts 22°
2026-04-24 14:40 55.21624 10.56256 7480 ft 139 kts 22°
2026-04-24 14:40 55.22436 10.57129 7482 ft 138 kts 21°
2026-04-24 14:40 55.23256 10.58015 7484 ft 138 kts 21°
2026-04-24 14:40 55.24083 10.58899 7480 ft 139 kts 21°
2026-04-24 14:41 55.24633 10.59485 7482 ft 140 kts 22°
2026-04-24 14:41 55.25731 10.60657 7479 ft 138 kts 21°
2026-04-24 14:41 55.26551 10.61532 7475 ft 138 kts 21°
2026-04-24 14:41 55.27365 10.62413 7476 ft 137 kts 22°
2026-04-24 14:42 55.27905 10.62996 7479 ft 138 kts 21°
2026-04-24 14:42 55.28722 10.63884 7478 ft 138 kts 22°
2026-04-24 14:42 55.29538 10.64770 7475 ft 138 kts 22°
2026-04-24 14:42 55.30360 10.65662 7481 ft 138 kts 22°
2026-04-24 14:43 55.31168 10.66535 7477 ft 138 kts 22°
2026-04-24 14:43 55.31999 10.67423 7475 ft 138 kts 22°
2026-04-24 14:43 55.32808 10.68295 7476 ft 138 kts 22°
2026-04-24 14:43 55.33623 10.69171 7479 ft 137 kts 21°
2026-04-24 14:44 55.34441 10.70058 7476 ft 138 kts 22°
2026-04-24 14:44 55.35287 10.70689 7478 ft 131 kts
2026-04-24 14:44 55.36176 10.71036 7479 ft 130 kts
2026-04-24 14:44 55.37057 10.71383 7479 ft 131 kts
2026-04-24 14:45 55.37944 10.71733 7479 ft 131 kts
2026-04-24 14:45 55.38832 10.72085 7478 ft 131 kts
2026-04-24 14:45 55.39721 10.72436 7481 ft 131 kts
2026-04-24 14:45 55.40610 10.72786 7482 ft 132 kts
2026-04-24 14:46 55.41508 10.73141 7481 ft 132 kts
2026-04-24 14:46 55.42407 10.73495 7482 ft 131 kts
2026-04-24 14:46 55.43298 10.73851 7479 ft 131 kts
2026-04-24 14:46 55.44177 10.74202 7478 ft 131 kts
2026-04-24 14:47 55.45073 10.74561 7478 ft 131 kts
2026-04-24 14:47 55.45956 10.74914 7477 ft 131 kts
2026-04-24 14:47 55.46833 10.75269 7476 ft 130 kts
2026-04-24 14:47 55.47719 10.75632 7476 ft 130 kts
2026-04-24 14:48 55.48593 10.75990 7477 ft 130 kts
2026-04-24 14:48 55.49478 10.76352 7474 ft 130 kts
2026-04-24 14:48 55.50360 10.76717 7474 ft 130 kts
2026-04-24 14:48 55.51230 10.77049 7476 ft 128 kts
2026-04-24 14:49 55.52121 10.77117 7477 ft 127 kts 355°
2026-04-24 14:49 55.52995 10.77150 7478 ft 127 kts 355°
2026-04-24 14:49 55.53879 10.77184 7478 ft 127 kts 355°
2026-04-24 14:49 55.54766 10.77219 7478 ft 127 kts 355°
2026-04-24 14:50 55.55646 10.77255 7480 ft 127 kts 355°
2026-04-24 14:50 55.56535 10.77291 7481 ft 127 kts 355°
2026-04-24 14:50 55.57418 10.77331 7480 ft 127 kts 355°
2026-04-24 14:50 55.58298 10.77374 7479 ft 127 kts 355°
2026-04-24 14:51 55.59175 10.77415 7479 ft 127 kts 355°
2026-04-24 14:51 55.60057 10.77457 7475 ft 127 kts 355°
2026-04-24 14:51 55.60942 10.77499 7481 ft 127 kts 355°
2026-04-24 14:51 55.61827 10.77543 7476 ft 127 kts 355°
2026-04-24 14:52 55.62701 10.77476 7477 ft 124 kts 346°
2026-04-24 14:52 55.63552 10.77198 7476 ft 124 kts 345°
2026-04-24 14:52 55.64404 10.76915 7475 ft 125 kts 345°
2026-04-24 14:52 55.65247 10.76633 7475 ft 125 kts 345°
2026-04-24 14:53 55.66100 10.76351 7475 ft 125 kts 345°
2026-04-24 14:53 55.66954 10.76072 7475 ft 125 kts 345°
2026-04-24 14:53 55.67807 10.75794 7477 ft 125 kts 345°
2026-04-24 14:53 55.68662 10.75514 7477 ft 125 kts 345°
2026-04-24 14:54 55.69513 10.75234 7474 ft 125 kts 345°
2026-04-24 14:54 55.70358 10.74957 7473 ft 125 kts 345°
2026-04-24 14:54 55.71212 10.74678 7472 ft 125 kts 345°
2026-04-24 14:54 55.72071 10.74399 7471 ft 125 kts 345°
2026-04-24 14:55 55.72927 10.74120 7471 ft 125 kts 345°
2026-04-24 14:55 55.73781 10.73840 7470 ft 125 kts 345°
2026-04-24 14:55 55.74634 10.73560 7470 ft 124 kts 345°
2026-04-24 14:55 55.75479 10.73282 7469 ft 124 kts 345°
2026-04-24 14:56 55.76330 10.73003 7469 ft 124 kts 345°
2026-04-24 14:56 55.77170 10.72729 7468 ft 124 kts 345°
2026-04-24 14:56 55.78021 10.72453 7469 ft 123 kts 345°
2026-04-24 14:56 55.78861 10.72179 7471 ft 123 kts 345°
2026-04-24 14:57 55.79701 10.71906 7466 ft 123 kts 345°
2026-04-24 14:57 55.80542 10.71632 7468 ft 122 kts 345°
2026-04-24 14:57 55.81354 10.71374 7454 ft 116 kts 345°
2026-04-24 14:57 55.82096 10.70940 7447 ft 112 kts 331°
2026-04-24 14:58 55.82826 10.70466 7444 ft 113 kts 343°
2026-04-24 14:58 55.83627 10.70447 7453 ft 115 kts 354°
2026-04-24 14:58 55.84416 10.70524 7450 ft 115 kts 356°
2026-04-24 14:58 55.85218 10.70648 7455 ft 116 kts 357°
2026-04-24 14:59 55.86022 10.70793 7454 ft 116 kts 358°
2026-04-24 14:59 55.86826 10.70946 7453 ft 116 kts 358°
2026-04-24 14:59 55.87621 10.71101 7452 ft 116 kts 358°
2026-04-24 14:59 55.88425 10.71259 7451 ft 116 kts 358°
2026-04-24 15:00 55.89226 10.71418 7452 ft 116 kts 358°
2026-04-24 15:00 55.90028 10.71577 7451 ft 116 kts 358°
2026-04-24 15:00 55.90827 10.71737 7447 ft 116 kts 358°
2026-04-24 15:00 55.91636 10.71897 7450 ft 116 kts 358°
2026-04-24 15:01 55.92434 10.72056 7451 ft 116 kts 358°
2026-04-24 15:01 55.93241 10.72217 7455 ft 117 kts 358°
2026-04-24 15:01 55.94050 10.72378 7458 ft 117 kts 358°
2026-04-24 15:01 55.94856 10.72539 7459 ft 118 kts 358°
2026-04-24 15:02 55.95670 10.72701 7461 ft 118 kts 358°
2026-04-24 15:02 55.96491 10.72865 7462 ft 118 kts 358°
2026-04-24 15:02 55.97303 10.73027 7461 ft 119 kts 358°
2026-04-24 15:02 55.98132 10.73193 7462 ft 119 kts 358°
2026-04-24 15:03 55.98947 10.73356 7461 ft 119 kts 358°
2026-04-24 15:03 55.99762 10.73519 7459 ft 118 kts 358°
2026-04-24 15:03 56.00589 10.73683 7444 ft 120 kts 358°
2026-04-24 15:03 56.01417 10.73849 7445 ft 120 kts 358°
2026-04-24 15:04 56.02246 10.74015 7443 ft 120 kts 358°
2026-04-24 15:04 56.03068 10.74180 7442 ft 120 kts 358°
2026-04-24 15:04 56.03901 10.74347 7437 ft 119 kts 358°
2026-04-24 15:04 56.04719 10.74511 7440 ft 120 kts 358°
2026-04-24 15:05 56.05547 10.74677 7440 ft 120 kts 358°
2026-04-24 15:05 56.06376 10.74843 7443 ft 119 kts 358°
2026-04-24 15:05 56.07203 10.75009 7441 ft 119 kts 358°
2026-04-24 15:05 56.08025 10.75174 7439 ft 119 kts 358°
2026-04-24 15:06 56.08849 10.75339 7439 ft 120 kts 358°
2026-04-24 15:06 56.09675 10.75506 7442 ft 120 kts 358°
2026-04-24 15:06 56.10505 10.75672 7438 ft 120 kts 358°
2026-04-24 15:06 56.11327 10.75838 7437 ft 120 kts 358°
2026-04-24 15:07 56.12159 10.76005 7434 ft 120 kts 358°
2026-04-24 15:07 56.12999 10.76174 7347 ft 121 kts 358°
2026-04-24 15:07 56.13823 10.76345 7257 ft 116 kts 358°
2026-04-24 15:07 56.14618 10.76504 7174 ft 114 kts 358°
2026-04-24 15:08 56.15396 10.76660 7096 ft 113 kts 358°
2026-04-24 15:08 56.16183 10.76817 7021 ft 113 kts 358°
2026-04-24 15:08 56.16960 10.76974 6945 ft 113 kts 357°
2026-04-24 15:08 56.17736 10.77130 6870 ft 112 kts 357°
2026-04-24 15:09 56.18504 10.77285 6798 ft 112 kts 358°
2026-04-24 15:09 56.19282 10.77442 6726 ft 112 kts 358°
2026-04-24 15:09 56.20062 10.77599 6654 ft 112 kts 358°
2026-04-24 15:09 56.20846 10.77755 6586 ft 115 kts 358°
2026-04-24 15:10 56.21654 10.77916 6525 ft 120 kts 358°
2026-04-24 15:10 56.22489 10.78086 6457 ft 122 kts 358°
2026-04-24 15:10 56.23336 10.78261 6383 ft 121 kts 358°
2026-04-24 15:10 56.24157 10.78427 6309 ft 120 kts 358°
2026-04-24 15:11 56.25000 10.78598 6234 ft 123 kts 358°
2026-04-24 15:11 56.25856 10.78768 6160 ft 125 kts 359°
2026-04-24 15:11 56.26727 10.78947 6088 ft 127 kts 359°
2026-04-24 15:11 56.27604 10.79127 6009 ft 127 kts 358°
2026-04-24 15:12 56.28479 10.79303 5929 ft 127 kts 358°
2026-04-24 15:12 56.30260 10.79663 5784 ft 130 kts 359°
2026-04-24 15:12 56.31167 10.79837 5710 ft 131 kts 358°
2026-04-24 15:13 56.32076 10.80032 5634 ft 133 kts 359°
2026-04-24 15:13 56.33000 10.80224 5560 ft 133 kts 358°
2026-04-24 15:13 56.33924 10.80405 5482 ft 134 kts 358°
2026-04-24 15:13 56.34847 10.80602 5401 ft 133 kts 359°
2026-04-24 15:14 56.35766 10.80785 5328 ft 134 kts 358°
2026-04-24 15:14 56.36701 10.80974 5255 ft 135 kts 358°
2026-04-24 15:14 56.37639 10.81161 5179 ft 135 kts 359°
2026-04-24 15:14 56.38563 10.81355 5107 ft 135 kts 358°
2026-04-24 15:15 56.39508 10.81544 5032 ft 137 kts 359°
2026-04-24 15:15 56.40452 10.81741 4957 ft 138 kts 359°
2026-04-24 15:15 56.41408 10.81936 4885 ft 139 kts 358°
2026-04-24 15:15 56.42371 10.82130 4810 ft 140 kts 358°
2026-04-24 15:16 56.43343 10.82332 4736 ft 141 kts 359°
2026-04-24 15:16 56.44321 10.82533 4651 ft 141 kts 359°
2026-04-24 15:16 56.45292 10.82728 4581 ft 141 kts 359°
2026-04-24 15:16 56.46285 10.82931 4501 ft 143 kts 359°
2026-04-24 15:17 56.47269 10.83134 4430 ft 143 kts 359°
2026-04-24 15:17 56.48232 10.83335 4424 ft 137 kts 359°
2026-04-24 15:17 56.49159 10.83517 4419 ft 134 kts 359°
2026-04-24 15:17 56.50079 10.83713 4422 ft 133 kts 358°
2026-04-24 15:18 56.51012 10.83904 4421 ft 135 kts 359°
2026-04-24 15:18 56.51950 10.84093 4423 ft 136 kts 359°
2026-04-24 15:18 56.52899 10.84294 4419 ft 138 kts
2026-04-24 15:18 56.53749 10.85184 4413 ft 147 kts 41°
2026-04-24 15:19 56.54170 10.86885 4418 ft 152 kts 68°
2026-04-24 15:19 56.54485 10.88711 4419 ft 151 kts 66°
2026-04-24 15:19 56.54801 10.90518 4419 ft 151 kts 67°
2026-04-24 15:19 56.55112 10.92322 4421 ft 151 kts 67°
2026-04-24 15:20 56.55425 10.94142 4420 ft 151 kts 67°
2026-04-24 15:20 56.55738 10.95953 4418 ft 151 kts 67°
2026-04-24 15:20 56.56052 10.97770 4419 ft 151 kts 67°
2026-04-24 15:20 56.56361 10.99574 4421 ft 151 kts 67°
2026-04-24 15:21 56.56670 11.01406 4421 ft 151 kts 67°
2026-04-24 15:21 56.56981 11.03235 4420 ft 151 kts 67°
2026-04-24 15:21 56.57289 11.05042 4418 ft 151 kts 67°
2026-04-24 15:21 56.57597 11.06852 4418 ft 151 kts 67°
2026-04-24 15:22 56.57907 11.08680 4424 ft 150 kts 67°
2026-04-24 15:22 56.58214 11.10493 4382 ft 152 kts 67°
2026-04-24 15:22 56.58526 11.12331 4334 ft 154 kts 67°
2026-04-24 15:23 56.59163 11.16064 4237 ft 155 kts 67°
2026-04-24 15:23 56.59807 11.19806 4135 ft 155 kts 67°
2026-04-24 15:23 56.60132 11.21686 4079 ft 155 kts 67°
2026-04-24 15:24 56.61093 11.27298 3930 ft 155 kts 67°
2026-04-24 15:25 56.61628 11.30407 3843 ft 155 kts 67°
2026-04-24 15:25 56.62380 11.34808 3664 ft 157 kts 67°
2026-04-24 15:26 56.63355 11.40468 3442 ft 157 kts 67°
2026-04-24 15:27 56.64328 11.46129 3217 ft 156 kts 67°
2026-04-24 15:27 56.65541 11.51577 2932 ft 156 kts 57°
2026-04-24 15:28 56.68052 11.57883 2428 ft 154 kts 45°
2026-04-24 15:29 56.69556 11.60383 2172 ft 142 kts
2026-04-24 15:30 56.72443 11.60460 1914 ft 140 kts 347°
2026-04-24 15:31 56.75787 11.59652 2362 ft 126 kts 347°
2026-04-24 15:32 56.79453 11.58806 2884 ft 119 kts 347°
2026-04-24 15:33 56.82725 11.58039 3394 ft 120 kts 347°
2026-04-24 15:33 56.85205 11.57410 3773 ft 121 kts 347°
2026-04-24 15:34 56.86861 11.56964 4029 ft 120 kts 347°
2026-04-24 15:35 56.88852 11.54829 4412 ft 116 kts 321°
2026-04-24 15:35 56.90110 11.52993 4683 ft 116 kts 321°
2026-04-24 15:35 56.90745 11.52092 4806 ft 116 kts 322°
2026-04-24 15:36 56.91382 11.51197 4931 ft 116 kts 322°
2026-04-24 15:36 56.92670 11.49400 5184 ft 116 kts 322°
2026-04-24 15:36 56.93102 11.48796 5273 ft 116 kts 322°
2026-04-24 15:37 56.93763 11.47961 5390 ft 117 kts 331°
2026-04-24 15:37 56.94519 11.47326 5420 ft 123 kts 333°
2026-04-24 15:37 56.95324 11.46646 5429 ft 128 kts 333°
2026-04-24 15:37 56.96417 11.45720 5431 ft 132 kts 333°
2026-04-24 15:38 56.96975 11.45247 5431 ft 134 kts 333°
2026-04-24 15:38 56.97828 11.44523 5428 ft 135 kts 333°
2026-04-24 15:38 56.98674 11.43805 5426 ft 135 kts 333°
2026-04-24 15:38 56.99532 11.43077 5427 ft 136 kts 333°
2026-04-24 15:39 57.00393 11.42344 5427 ft 136 kts 333°
2026-04-24 15:39 57.01239 11.41623 5426 ft 136 kts 333°
2026-04-24 15:39 57.02095 11.40891 5323 ft 131 kts 333°
2026-04-24 15:39 57.02898 11.40206 5184 ft 126 kts 333°
2026-04-24 15:40 57.03689 11.39529 5051 ft 124 kts 333°
2026-04-24 15:40 57.04468 11.38861 4915 ft 123 kts 333°
2026-04-24 15:40 57.05237 11.38208 4783 ft 122 kts 333°
2026-04-24 15:40 57.06011 11.37547 4651 ft 122 kts 332°
2026-04-24 15:41 57.06680 11.36631 4523 ft 121 kts 314°
2026-04-24 15:41 57.07266 11.35520 4385 ft 121 kts 314°
2026-04-24 15:41 57.07857 11.34418 4263 ft 122 kts 314°
2026-04-24 15:41 57.08453 11.33316 4136 ft 122 kts 314°
2026-04-24 15:42 57.09057 11.32211 4007 ft 122 kts 314°
2026-04-24 15:42 57.09661 11.31113 3880 ft 122 kts 314°
2026-04-24 15:42 57.10264 11.30030 3757 ft 122 kts 314°
2026-04-24 15:42 57.10878 11.28936 3629 ft 122 kts 314°
2026-04-24 15:43 57.11487 11.27856 3502 ft 123 kts 314°
2026-04-24 15:43 57.12110 11.26763 3378 ft 123 kts 314°
2026-04-24 15:43 57.12728 11.25691 3256 ft 123 kts 314°
2026-04-24 15:43 57.13358 11.24607 3127 ft 123 kts 314°
2026-04-24 15:44 57.13978 11.23541 2999 ft 123 kts 314°
2026-04-24 15:44 57.14605 11.22464 2868 ft 123 kts 314°
2026-04-24 15:44 57.15235 11.21375 2743 ft 124 kts 314°
2026-04-24 15:44 57.15856 11.20312 2620 ft 124 kts 314°
2026-04-24 15:45 57.16488 11.19231 2491 ft 124 kts 314°
2026-04-24 15:45 57.17128 11.18136 2425 ft 125 kts 314°
2026-04-24 15:45 57.17761 11.17054 2423 ft 125 kts 314°
2026-04-24 15:45 57.18403 11.15956 2422 ft 125 kts 314°
2026-04-24 15:46 57.19045 11.14861 2424 ft 125 kts 314°
2026-04-24 15:46 57.19687 11.13764 2423 ft 125 kts 314°
2026-04-24 15:46 57.20316 11.12690 2418 ft 121 kts 314°
2026-04-24 15:46 57.20916 11.11668 2408 ft 113 kts 313°
2026-04-24 15:47 57.21475 11.10711 2406 ft 108 kts 313°
2026-04-24 15:47 57.22021 11.09773 2405 ft 106 kts 313°
2026-04-24 15:47 57.22561 11.08846 2404 ft 105 kts 313°
2026-04-24 15:47 57.23094 11.07930 2412 ft 108 kts 313°
2026-04-24 15:48 57.23662 11.06957 2419 ft 115 kts 315°
2026-04-24 15:48 57.24354 11.06087 2425 ft 126 kts 331°
2026-04-24 15:48 57.25247 11.05942 2410 ft 139 kts 14°
2026-04-24 15:48 57.25937 11.07220 2413 ft 148 kts 59°
2026-04-24 15:49 57.26361 11.08888 2362 ft 143 kts 59°
2026-04-24 15:49 57.26792 11.10540 2219 ft 143 kts 60°
2026-04-24 15:49 57.27222 11.12193 2092 ft 142 kts 60°
2026-04-24 15:49 57.27649 11.13842 1958 ft 141 kts 60°
2026-04-24 15:50 57.28071 11.15481 1828 ft 141 kts 60°
2026-04-24 15:50 57.28488 11.17104 1702 ft 141 kts 60°
2026-04-24 15:50 57.28913 11.18735 1578 ft 140 kts 56°
2026-04-24 15:50 57.29659 11.19737 1440 ft 133 kts
2026-04-24 15:51 57.30459 11.19169 1315 ft 125 kts 307°
2026-04-24 15:51 57.30614 11.17659 1192 ft 124 kts 264°
2026-04-24 15:51 57.30594 11.16075 1061 ft 119 kts 274°
2026-04-24 15:51 57.30628 11.14579 920 ft 113 kts 273°
2026-04-24 15:52 57.30617 11.13224 907 ft 97 kts 265°
2026-04-24 15:52 57.30541 11.12075 893 ft 87 kts 261°
2026-04-24 15:52 57.30426 11.11065 903 ft 73 kts 261°
2026-04-24 15:52 57.30263 11.10247 880 ft 65 kts 238°
2026-04-24 15:53 57.30041 11.09482 915 ft 76 kts 245°
2026-04-24 15:53 57.29779 11.08571 979 ft 84 kts 243°
2026-04-24 15:53 57.29492 11.07589 1032 ft 85 kts 248°
2026-04-24 15:53 57.29251 11.06578 941 ft 88 kts 251°
2026-04-24 15:54 57.29028 11.05566 873 ft 84 kts 250°
2026-04-24 15:54 57.28821 11.04586 758 ft 76 kts 248°
2026-04-24 15:54 57.28612 11.03707 600 ft 77 kts 246°
2026-04-24 15:54 57.28404 11.02799 462 ft 75 kts 246°
2026-04-24 15:55 57.28196 11.01922 301 ft 75 kts 247°
2026-04-24 15:55 57.27988 11.01060 110 ft 70 kts 245°
2026-04-24 15:55 57.27798 11.00313 29 ft 55 kts 245°
2026-04-24 15:55 57.27691 10.99869 35 ft 31 kts 245°
2026-04-24 15:56 57.27603 10.99495 35 ft 27 kts 249°
2026-04-24 15:56 57.27578 10.99426 34 ft 7 kts 66°
2026-04-24 15:56 57.27618 10.99575 37 ft 18 kts 63°
2026-04-24 15:56 57.27690 10.99859 35 ft 30 kts 66°
2026-04-24 15:57 57.27770 11.00191 29 ft 22 kts 65°
2026-04-24 15:57 57.27820 11.00410 28 ft 15 kts 101°
2026-04-24 15:57 57.27749 11.00508 30 ft 16 kts 151°
2026-04-24 15:57 57.27640 11.00621 31 ft 8 kts 150°
2026-04-24 15:58 57.27625 11.00634 30 ft 8 kts 156°
2026-04-24 15:58 57.27598 11.00664 30 ft 4 kts 49°
2026-04-24 15:58 57.27605 11.00661 30 ft 0 kts 327°